Time,TemperatureF,DewpointF,PressureIn,WindDirection,WindDirectionDegrees,WindSpeedMPH,WindSpeedGustMPH,Humidity,HourlyPrecipIn,Conditions,Clouds,dailyrainin,SolarRadiationWatts/m^2,SoftwareType,DateUTC
2013-03-27 00:00:00,28.0,13.9,29.87,ENE,76,7.0,7.0,55,0.00,,---,0.00,0.00,VWS V14.01,2013-03-26 23:00:00,
2013-03-27 00:10:00,28.0,14.3,29.87,NNE,33,5.0,10.0,56,0.00,,---,0.00,0.00,VWS V14.01,2013-03-26 23:10:00,
2013-03-27 00:15:00,28.0,14.3,29.87,ENE,70,9.0,9.0,56,0.00,,---,0.00,0.00,VWS V14.01,2013-03-26 23:15:00,
2013-03-27 00:20:00,28.0,14.3,29.87,NE,49,6.0,8.0,56,0.00,,---,0.00,0.00,VWS V14.01,2013-03-26 23:20:00,
2013-03-27 00:25:00,28.0,14.3,29.87,ENE,71,3.0,8.0,56,0.00,,---,0.00,0.00,VWS V14.01,2013-03-26 23:25:00,
2013-03-27 00:30:00,27.9,14.2,29.87,ENE,57,13.0,14.0,56,0.00,,---,0.00,0.00,VWS V14.01,2013-03-26 23:30:00,
2013-03-27 00:35:00,27.9,14.2,29.87,ENE,64,3.0,7.0,56,0.00,,---,0.00,0.00,VWS V14.01,2013-03-26 23:35:00,
2013-03-27 00:40:00,27.9,14.2,29.87,ENE,62,5.0,10.0,56,0.00,,---,0.00,0.00,VWS V14.01,2013-03-26 23:40:00,
2013-03-27 00:45:00,27.9,14.2,29.86,ENE,69,6.0,11.0,56,0.00,,---,0.00,0.00,VWS V14.01,2013-03-26 23:45:00,
2013-03-27 00:50:00,27.8,14.6,29.86,ENE,61,9.0,9.0,57,0.00,,---,0.00,0.00,VWS V14.01,2013-03-26 23:50:00,
2013-03-27 00:55:00,27.8,14.2,29.86,ENE,69,4.0,17.0,56,0.00,,---,0.00,0.00,VWS V14.01,2013-03-26 23:55:00,
2013-03-27 01:00:00,27.8,14.2,29.86,East,86,5.0,7.0,56,0.00,,---,0.00,0.00,VWS V14.01,2013-03-27 00:00:00,
2013-03-27 01:05:00,27.8,14.2,29.86,NE,50,4.0,13.0,56,0.00,,---,0.00,0.00,VWS V14.01,2013-03-27 00:05:00,
2013-03-27 01:10:00,27.7,14.1,29.86,NE,48,8.0,12.0,56,0.00,,---,0.00,0.00,VWS V14.01,2013-03-27 00:10:00,
2013-03-27 01:15:00,27.7,14.1,29.86,ENE,65,7.0,7.0,56,0.00,,---,0.00,0.00,VWS V14.01,2013-03-27 00:15:00,
2013-03-27 01:20:00,27.7,14.1,29.86,East,86,3.0,9.0,56,0.00,,---,0.00,0.00,VWS V14.01,2013-03-27 00:20:00,
2013-03-27 01:25:00,27.8,14.2,29.86,NE,55,2.0,7.0,56,0.00,,---,0.00,0.00,VWS V14.01,2013-03-27 00:25:00,
2013-03-27 01:30:00,27.8,14.2,29.86,ENE,60,4.0,8.0,56,0.00,,---,0.00,0.00,VWS V14.01,2013-03-27 00:30:00,
2013-03-27 01:40:00,27.8,14.2,29.86,NE,46,3.0,4.0,56,0.00,,---,0.00,0.00,VWS V14.01,2013-03-27 00:40:00,
2013-03-27 01:45:00,27.8,14.2,29.85,ENE,72,2.0,5.0,56,0.00,,---,0.00,0.00,VWS V14.01,2013-03-27 00:45:00,
2013-03-27 01:50:00,27.7,14.1,29.85,NE,55,6.0,6.0,56,0.00,,---,0.00,0.00,VWS V14.01,2013-03-27 00:50:00,
2013-03-27 02:00:00,27.6,14.0,29.85,East,90,4.0,12.0,56,0.00,,---,0.00,0.00,VWS V14.01,2013-03-27 01:00:00,
2013-03-27 02:05:00,27.6,14.0,29.85,NNE,32,7.0,9.0,56,0.00,,---,0.00,0.00,VWS V14.01,2013-03-27 01:05:00,
2013-03-27 02:10:00,27.6,14.0,29.85,NNE,30,5.0,12.0,56,0.00,,---,0.00,0.00,VWS V14.01,2013-03-27 01:10:00,
2013-03-27 02:15:00,27.5,14.3,29.85,ENE,78,7.0,13.0,57,0.00,,---,0.00,0.00,VWS V14.01,2013-03-27 01:15:00,
2013-03-27 02:20:00,27.3,14.5,29.85,East,98,4.0,13.0,58,0.00,,---,0.00,0.00,VWS V14.01,2013-03-27 01:20:00,
2013-03-27 02:30:00,27.1,14.7,29.85,ESE,108,2.0,9.0,59,0.00,,---,0.00,0.00,VWS V14.01,2013-03-27 01:30:00,
2013-03-27 02:35:00,27.0,15.0,29.85,East,101,6.0,11.0,60,0.00,,---,0.00,0.00,VWS V14.01,2013-03-27 01:35:00,
2013-03-27 02:40:00,26.9,15.3,29.85,East,96,7.0,10.0,61,0.00,,---,0.00,0.00,VWS V14.01,2013-03-27 01:40:00,
2013-03-27 02:45:00,26.8,15.2,29.85,ENE,77,5.0,5.0,61,0.00,,---,0.00,0.00,VWS V14.01,2013-03-27 01:45:00,
2013-03-27 02:50:00,26.7,15.4,29.85,ENE,69,1.0,5.0,62,0.00,,---,0.00,0.00,VWS V14.01,2013-03-27 01:50:00,
2013-03-27 02:55:00,26.7,15.4,29.85,ENE,71,3.0,6.0,62,0.00,,---,0.00,0.00,VWS V14.01,2013-03-27 01:55:00,
2013-03-27 03:00:00,26.7,15.4,29.85,ENE,59,10.0,10.0,62,0.00,,---,0.00,0.00,VWS V14.01,2013-03-27 02:00:00,
2013-03-27 03:05:00,26.6,15.4,29.85,ENE,66,6.0,9.0,62,0.00,,---,0.00,0.00,VWS V14.01,2013-03-27 02:05:00,
2013-03-27 03:10:00,26.5,15.6,29.85,ESE,111,3.0,5.0,63,0.00,,---,0.00,0.00,VWS V14.01,2013-03-27 02:10:00,
2013-03-27 03:15:00,26.5,15.6,29.85,NE,55,5.0,8.0,63,0.00,,---,0.00,0.00,VWS V14.01,2013-03-27 02:15:00,
2013-03-27 03:25:00,26.5,15.6,29.85,ENE,68,1.0,10.0,63,0.00,,---,0.00,0.00,VWS V14.01,2013-03-27 02:25:00,
2013-03-27 03:30:00,26.6,15.7,29.85,NE,40,4.0,6.0,63,0.00,,---,0.00,0.00,VWS V14.01,2013-03-27 02:30:00,
2013-03-27 03:35:00,26.6,15.7,29.85,NE,34,6.0,6.0,63,0.00,,---,0.00,0.00,VWS V14.01,2013-03-27 02:35:00,
2013-03-27 03:40:00,26.7,15.8,29.85,NE,40,0.0,2.0,63,0.00,,---,0.00,0.00,VWS V14.01,2013-03-27 02:40:00,
2013-03-27 03:45:00,26.7,15.4,29.84,East,88,3.0,7.0,62,0.00,,---,0.00,0.00,VWS V14.01,2013-03-27 02:45:00,
2013-03-27 03:55:00,26.8,15.2,29.84,ENE,78,3.0,5.0,61,0.00,,---,0.00,0.00,VWS V14.01,2013-03-27 02:55:00,
2013-03-27 04:00:00,26.7,15.1,29.84,ESE,113,5.0,6.0,61,0.00,,---,0.00,0.00,VWS V14.01,2013-03-27 03:00:00,
2013-03-27 04:10:00,26.7,14.7,29.84,East,91,4.0,7.0,60,0.00,,---,0.00,0.00,VWS V14.01,2013-03-27 03:10:00,
2013-03-27 04:20:00,26.7,14.7,29.84,ENE,73,7.0,9.0,60,0.00,,---,0.00,0.00,VWS V14.01,2013-03-27 03:20:00,
2013-03-27 04:25:00,26.7,15.1,29.84,ENE,76,0.0,0.0,61,0.00,,---,0.00,0.00,VWS V14.01,2013-03-27 03:25:00,
2013-03-27 04:30:00,26.7,15.1,29.84,East,84,1.0,4.0,61,0.00,,---,0.00,0.00,VWS V14.01,2013-03-27 03:30:00,
2013-03-27 04:40:00,26.7,15.1,29.84,East,82,1.0,8.0,61,0.00,,---,0.00,0.00,VWS V14.01,2013-03-27 03:40:00,
2013-03-27 04:45:00,26.7,15.1,29.84,ESE,103,1.0,5.0,61,0.00,,---,0.00,0.00,VWS V14.01,2013-03-27 03:45:00,
2013-03-27 04:50:00,26.7,15.1,29.84,ENE,69,3.0,4.0,61,0.00,,---,0.00,0.00,VWS V14.01,2013-03-27 03:50:00,
2013-03-27 04:55:00,26.6,15.4,29.84,East,101,1.0,6.0,62,0.00,,---,0.00,0.00,VWS V14.01,2013-03-27 03:55:00,
2013-03-27 05:00:00,26.5,15.3,29.84,East,101,4.0,8.0,62,0.00,,---,0.00,0.00,VWS V14.01,2013-03-27 04:00:00,
2013-03-27 05:05:00,26.3,15.1,29.84,East,92,4.0,5.0,62,0.00,,---,0.00,0.00,VWS V14.01,2013-03-27 04:05:00,
2013-03-27 05:10:00,26.3,15.4,29.84,ESE,111,3.0,5.0,63,0.00,,---,0.00,0.00,VWS V14.01,2013-03-27 04:10:00,
2013-03-27 05:15:00,26.2,15.3,29.84,East,86,4.0,9.0,63,0.00,,---,0.00,0.00,VWS V14.01,2013-03-27 04:15:00,
2013-03-27 05:20:00,26.1,15.6,29.84,ESE,103,4.0,10.0,64,0.00,,---,0.00,0.00,VWS V14.01,2013-03-27 04:20:00,
2013-03-27 05:25:00,26.0,15.5,29.84,ESE,107,6.0,9.0,64,0.00,,---,0.00,0.00,VWS V14.01,2013-03-27 04:25:00,
2013-03-27 05:30:00,25.9,15.8,29.84,East,93,3.0,5.0,65,0.00,,---,0.00,0.00,VWS V14.01,2013-03-27 04:30:00,
2013-03-27 05:35:00,25.9,15.8,29.84,ESE,113,0.0,7.0,65,0.00,,---,0.00,0.00,VWS V14.01,2013-03-27 04:35:00,
2013-03-27 05:40:00,25.9,15.8,29.84,ESE,110,5.0,10.0,65,0.00,,---,0.00,0.00,VWS V14.01,2013-03-27 04:40:00,
2013-03-27 05:45:00,25.9,15.8,29.84,East,99,4.0,7.0,65,0.00,,---,0.00,0.00,VWS V14.01,2013-03-27 04:45:00,
2013-03-27 05:50:00,25.8,15.7,29.84,East,97,8.0,10.0,65,0.00,,---,0.00,0.00,VWS V14.01,2013-03-27 04:50:00,
2013-03-27 06:00:00,25.7,15.9,29.84,ENE,69,3.0,10.0,66,0.00,,---,0.00,0.00,VWS V14.01,2013-03-27 05:00:00,
2013-03-27 06:05:00,25.7,16.3,29.84,ESE,102,5.0,6.0,67,0.00,,---,0.00,7.00,VWS V14.01,2013-03-27 05:05:00,
2013-03-27 06:10:00,25.7,16.3,29.84,ENE,78,2.0,4.0,67,0.00,,---,0.00,9.00,VWS V14.01,2013-03-27 05:10:00,
2013-03-27 06:20:00,25.7,16.3,29.84,East,82,2.0,10.0,67,0.00,,---,0.00,16.00,VWS V14.01,2013-03-27 05:20:00,
2013-03-27 06:25:00,25.7,16.6,29.84,East,79,2.0,7.0,68,0.00,,---,0.00,19.00,VWS V14.01,2013-03-27 05:25:00,
2013-03-27 06:30:00,25.6,16.9,29.84,ESE,115,6.0,10.0,69,0.00,,---,0.00,23.00,VWS V14.01,2013-03-27 05:30:00,
2013-03-27 06:35:00,25.5,16.8,29.84,East,86,2.0,11.0,69,0.00,,---,0.00,28.00,VWS V14.01,2013-03-27 05:35:00,
2013-03-27 06:40:00,25.4,16.7,29.84,NE,52,7.0,7.0,69,0.00,,---,0.00,32.00,VWS V14.01,2013-03-27 05:40:00,
2013-03-27 06:50:00,25.4,17.0,29.85,ENE,65,13.0,13.0,70,0.00,,---,0.00,39.00,VWS V14.01,2013-03-27 05:50:00,
2013-03-27 06:55:00,25.3,17.2,29.85,ENE,74,3.0,7.0,71,0.00,,---,0.00,42.00,VWS V14.01,2013-03-27 05:55:00,
2013-03-27 07:00:00,25.3,17.2,29.85,ENE,69,3.0,9.0,71,0.00,,---,0.00,47.00,VWS V14.01,2013-03-27 06:00:00,
2013-03-27 07:05:00,25.3,17.5,29.85,NE,39,4.0,4.0,72,0.00,,---,0.00,51.00,VWS V14.01,2013-03-27 06:05:00,
2013-03-27 07:15:00,25.5,17.8,29.85,ENE,71,0.0,4.0,72,0.00,,---,0.00,58.00,VWS V14.01,2013-03-27 06:15:00,
2013-03-27 07:20:00,25.6,17.5,29.85,East,81,1.0,5.0,71,0.00,,---,0.00,62.00,VWS V14.01,2013-03-27 06:20:00,
2013-03-27 07:30:00,25.7,17.6,29.85,ENE,72,3.0,10.0,71,0.00,,---,0.00,77.00,VWS V14.01,2013-03-27 06:30:00,
2013-03-27 07:35:00,25.8,17.7,29.85,East,93,3.0,12.0,71,0.00,,---,0.00,83.00,VWS V14.01,2013-03-27 06:35:00,
2013-03-27 07:40:00,25.8,17.7,29.85,ENE,67,2.0,7.0,71,0.00,,---,0.00,95.00,VWS V14.01,2013-03-27 06:40:00,
2013-03-27 07:45:00,25.8,18.0,29.85,SE,138,3.0,5.0,72,0.00,,---,0.00,102.00,VWS V14.01,2013-03-27 06:45:00,
2013-03-27 07:50:00,25.8,18.4,29.85,ESE,114,3.0,5.0,73,0.00,,---,0.00,100.00,VWS V14.01,2013-03-27 06:50:00,
2013-03-27 07:55:00,25.8,18.7,29.85,East,101,0.0,4.0,74,0.00,,---,0.00,100.00,VWS V14.01,2013-03-27 06:55:00,
2013-03-27 08:00:00,25.8,19.0,29.85,East,80,4.0,6.0,75,0.00,,---,0.00,100.00,VWS V14.01,2013-03-27 07:00:00,
2013-03-27 08:10:00,25.9,19.4,29.85,ESE,104,2.0,5.0,76,0.00,,---,0.00,111.00,VWS V14.01,2013-03-27 07:10:00,
2013-03-27 08:15:00,25.9,19.7,29.85,ENE,72,1.0,5.0,77,0.00,,---,0.00,123.00,VWS V14.01,2013-03-27 07:15:00,
2013-03-27 08:25:00,25.5,19.9,29.85,ENE,71,5.0,7.0,79,0.00,,---,0.00,121.00,VWS V14.01,2013-03-27 07:25:00,
2013-03-27 08:30:00,25.7,20.4,29.85,ESE,103,4.0,5.0,80,0.00,,---,0.00,120.00,VWS V14.01,2013-03-27 07:30:00,
2013-03-27 08:40:00,25.7,20.4,29.85,ESE,108,0.0,9.0,80,0.00,,---,0.00,121.00,VWS V14.01,2013-03-27 07:40:00,
2013-03-27 08:45:00,25.7,20.4,29.85,ENE,73,5.0,10.0,80,0.00,,---,0.00,135.00,VWS V14.01,2013-03-27 07:45:00,
2013-03-27 08:55:00,25.5,20.5,29.85,ENE,68,6.0,11.0,81,0.00,,---,0.00,169.00,VWS V14.01,2013-03-27 07:55:00,
2013-03-27 09:00:00,25.7,20.7,29.85,NE,51,1.0,7.0,81,0.00,,---,0.00,172.00,VWS V14.01,2013-03-27 08:00:00,
2013-03-27 09:10:00,26.1,21.1,29.85,East,94,0.0,7.0,81,0.00,,---,0.00,128.00,VWS V14.01,2013-03-27 08:10:00,
2013-03-27 09:15:00,26.0,21.0,29.85,ENE,76,4.0,7.0,81,0.00,,---,0.00,163.00,VWS V14.01,2013-03-27 08:15:00,
2013-03-27 09:20:00,26.0,21.0,29.85,East,101,2.0,7.0,81,0.00,,---,0.00,223.00,VWS V14.01,2013-03-27 08:20:00,
2013-03-27 09:30:00,26.5,20.9,29.86,East,98,5.0,5.0,79,0.00,,---,0.00,149.00,VWS V14.01,2013-03-27 08:30:00,
2013-03-27 09:40:00,26.7,20.8,29.86,ENE,76,4.0,10.0,78,0.00,,---,0.00,179.00,VWS V14.01,2013-03-27 08:40:00,
2013-03-27 09:45:00,26.6,20.4,29.86,East,88,6.0,12.0,77,0.00,,---,0.00,153.00,VWS V14.01,2013-03-27 08:45:00,
2013-03-27 09:50:00,26.5,20.3,29.86,East,96,6.0,11.0,77,0.00,,---,0.00,148.00,VWS V14.01,2013-03-27 08:50:00,
2013-03-27 09:55:00,26.6,20.4,29.86,East,101,2.0,7.0,77,0.00,,---,0.00,178.00,VWS V14.01,2013-03-27 08:55:00,
2013-03-27 10:00:00,27.0,21.1,29.85,ENE,65,5.0,8.0,78,0.00,,---,0.00,193.00,VWS V14.01,2013-03-27 09:00:00,
2013-03-27 10:10:00,27.6,21.4,29.85,ENE,77,2.0,11.0,77,0.00,,---,0.00,229.00,VWS V14.01,2013-03-27 09:10:00,
2013-03-27 10:20:00,27.8,21.9,29.86,East,82,6.0,12.0,78,0.00,,---,0.00,151.00,VWS V14.01,2013-03-27 09:20:00,
2013-03-27 10:30:00,27.4,21.1,29.86,ENE,76,9.0,10.0,77,0.00,,---,0.00,232.00,VWS V14.01,2013-03-27 09:30:00,
2013-03-27 10:35:00,27.5,20.9,29.86,NE,48,2.0,5.0,76,0.00,,---,0.00,156.00,VWS V14.01,2013-03-27 09:35:00,
2013-03-27 10:45:00,27.8,21.5,29.85,NE,52,9.0,10.0,77,0.00,,---,0.00,178.00,VWS V14.01,2013-03-27 09:45:00,
2013-03-27 10:50:00,27.6,21.0,29.85,East,83,5.0,9.0,76,0.00,,---,0.00,128.00,VWS V14.01,2013-03-27 09:50:00,
2013-03-27 10:55:00,27.7,21.1,29.85,ENE,71,4.0,13.0,76,0.00,,---,0.00,148.00,VWS V14.01,2013-03-27 09:55:00,
2013-03-27 11:00:00,27.8,21.5,29.85,ENE,69,4.0,6.0,77,0.00,,---,0.00,167.00,VWS V14.01,2013-03-27 10:00:00,
2013-03-27 11:10:00,28.4,21.5,29.85,ENE,73,6.0,7.0,75,0.00,,---,0.00,127.00,VWS V14.01,2013-03-27 10:10:00,
2013-03-27 11:15:00,28.1,21.2,29.85,ENE,75,0.0,4.0,75,0.00,,---,0.00,128.00,VWS V14.01,2013-03-27 10:15:00,
2013-03-27 11:25:00,28.0,21.1,29.85,ESE,123,5.0,8.0,75,0.00,,---,0.00,169.00,VWS V14.01,2013-03-27 10:25:00,
2013-03-27 11:30:00,27.9,21.0,29.85,ESE,123,4.0,6.0,75,0.00,,---,0.00,190.00,VWS V14.01,2013-03-27 10:30:00,
2013-03-27 11:35:00,28.4,21.5,29.85,NE,42,0.0,5.0,75,0.00,,---,0.00,153.00,VWS V14.01,2013-03-27 10:35:00,
2013-03-27 11:40:00,28.7,21.5,29.85,ENE,65,6.0,12.0,74,0.00,,---,0.00,183.00,VWS V14.01,2013-03-27 10:40:00,
2013-03-27 11:50:00,28.4,21.5,29.85,East,80,4.0,7.0,75,0.00,,---,0.00,186.00,VWS V14.01,2013-03-27 10:50:00,
2013-03-27 11:55:00,28.8,22.2,29.85,East,87,3.0,9.0,76,0.00,,---,0.00,216.00,VWS V14.01,2013-03-27 10:55:00,
2013-03-27 12:00:00,28.9,22.0,29.85,NE,51,4.0,9.0,75,0.00,,---,0.00,181.00,VWS V14.01,2013-03-27 11:00:00,
2013-03-27 12:05:00,28.9,22.3,29.85,SE,138,5.0,9.0,76,0.00,,---,0.00,260.00,VWS V14.01,2013-03-27 11:05:00,
2013-03-27 12:10:00,28.4,22.1,29.85,East,81,5.0,7.0,77,0.00,,---,0.00,213.00,VWS V14.01,2013-03-27 11:10:00,
2013-03-27 12:20:00,28.1,21.8,29.85,ESE,122,5.0,7.0,77,0.00,,---,0.00,248.00,VWS V14.01,2013-03-27 11:20:00,
2013-03-27 12:25:00,28.5,22.5,29.85,East,92,5.0,8.0,78,0.00,,---,0.00,213.00,VWS V14.01,2013-03-27 11:25:00,
2013-03-27 12:30:00,28.8,22.2,29.85,East,94,5.0,6.0,76,0.00,,---,0.00,239.00,VWS V14.01,2013-03-27 11:30:00,
2013-03-27 12:40:00,28.3,22.0,29.85,SE,125,5.0,8.0,77,0.00,,---,0.00,229.00,VWS V14.01,2013-03-27 11:40:00,
2013-03-27 12:50:00,29.2,22.3,29.85,ESE,113,0.0,7.0,75,0.00,,---,0.00,214.00,VWS V14.01,2013-03-27 11:50:00,
2013-03-27 12:55:00,28.9,22.6,29.85,East,87,3.0,6.0,77,0.00,,---,0.00,199.00,VWS V14.01,2013-03-27 11:55:00,
2013-03-27 13:00:00,29.3,22.7,29.85,ESE,121,6.0,8.0,76,0.00,,---,0.00,188.00,VWS V14.01,2013-03-27 12:00:00,
2013-03-27 13:05:00,29.7,22.8,29.85,East,99,4.0,6.0,75,0.00,,---,0.00,244.00,VWS V14.01,2013-03-27 12:05:00,
2013-03-27 13:10:00,29.7,22.8,29.85,East,88,0.0,6.0,75,0.00,,---,0.00,227.00,VWS V14.01,2013-03-27 12:10:00,
2013-03-27 13:20:00,29.8,22.5,29.85,ESE,105,5.0,6.0,74,0.00,,---,0.00,209.00,VWS V14.01,2013-03-27 12:20:00,
2013-03-27 13:30:00,30.1,22.5,29.85,SE,130,5.0,10.0,73,0.00,,---,0.00,214.00,VWS V14.01,2013-03-27 12:30:00,
2013-03-27 13:35:00,30.1,22.8,29.85,ENE,74,2.0,8.0,74,0.00,,---,0.00,225.00,VWS V14.01,2013-03-27 12:35:00,
2013-03-27 13:40:00,30.1,22.2,29.85,East,87,5.0,12.0,72,0.00,,---,0.00,232.00,VWS V14.01,2013-03-27 12:40:00,
2013-03-27 13:45:00,30.2,21.6,29.85,East,87,4.0,6.0,70,0.00,,---,0.00,234.00,VWS V14.01,2013-03-27 12:45:00,
2013-03-27 13:50:00,30.3,21.7,29.85,East,86,1.0,6.0,70,0.00,,---,0.00,234.00,VWS V14.01,2013-03-27 12:50:00,
2013-03-27 13:55:00,29.9,21.3,29.85,ESE,116,3.0,11.0,70,0.00,,---,0.00,213.00,VWS V14.01,2013-03-27 12:55:00,
2013-03-27 14:00:00,29.9,22.0,29.85,ESE,106,6.0,9.0,72,0.00,,---,0.00,200.00,VWS V14.01,2013-03-27 13:00:00,
2013-03-27 14:10:00,30.3,22.7,29.85,East,96,4.0,5.0,73,0.00,,---,0.00,179.00,VWS V14.01,2013-03-27 13:10:00,
2013-03-27 14:15:00,30.5,22.9,29.85,East,83,9.0,11.0,73,0.00,,---,0.00,178.00,VWS V14.01,2013-03-27 13:15:00,
2013-03-27 14:20:00,30.1,23.1,29.85,East,91,1.0,4.0,75,0.00,,---,0.00,218.00,VWS V14.01,2013-03-27 13:20:00,
2013-03-27 14:25:00,30.4,23.4,29.85,ENE,75,0.0,6.0,75,0.00,,---,0.00,188.00,VWS V14.01,2013-03-27 13:25:00,
2013-03-27 14:30:00,30.2,23.2,29.85,ESE,111,5.0,11.0,75,0.00,,---,0.00,172.00,VWS V14.01,2013-03-27 13:30:00,
2013-03-27 14:35:00,30.1,24.1,29.85,East,96,5.0,9.0,78,0.00,,---,0.00,100.00,VWS V14.01,2013-03-27 13:35:00,
2013-03-27 14:40:00,29.9,24.5,29.85,East,79,4.0,6.0,80,0.00,,---,0.00,139.00,VWS V14.01,2013-03-27 13:40:00,
2013-03-27 14:50:00,29.3,24.8,29.85,NE,46,0.0,7.0,83,0.00,,---,0.00,155.00,VWS V14.01,2013-03-27 13:50:00,
2013-03-27 14:55:00,29.3,25.1,29.85,East,84,5.0,7.0,84,0.00,,---,0.00,139.00,VWS V14.01,2013-03-27 13:55:00,
2013-03-27 15:00:00,29.0,25.1,29.85,ENE,74,3.0,6.0,85,0.00,,---,0.00,162.00,VWS V14.01,2013-03-27 14:00:00,
2013-03-27 15:10:00,28.9,25.0,29.85,East,82,1.0,3.0,85,0.00,,---,0.00,153.00,VWS V14.01,2013-03-27 14:10:00,
2013-03-27 15:20:00,29.7,26.0,29.85,ENE,65,2.0,5.0,86,0.00,,---,0.00,156.00,VWS V14.01,2013-03-27 14:20:00,
2013-03-27 15:25:00,30.0,26.3,29.85,ENE,72,4.0,4.0,86,0.00,,---,0.00,149.00,VWS V14.01,2013-03-27 14:25:00,
2013-03-27 15:30:00,29.8,25.9,29.86,ENE,77,2.0,6.0,85,0.00,,---,0.00,127.00,VWS V14.01,2013-03-27 14:30:00,
2013-03-27 15:35:00,29.7,25.8,29.86,NE,53,3.0,7.0,85,0.00,,---,0.00,127.00,VWS V14.01,2013-03-27 14:35:00,
2013-03-27 15:40:00,29.4,25.7,29.86,ENE,65,5.0,7.0,86,0.00,,---,0.00,139.00,VWS V14.01,2013-03-27 14:40:00,
2013-03-27 15:45:00,29.3,25.9,29.85,East,93,6.0,7.0,87,0.00,,---,0.00,148.00,VWS V14.01,2013-03-27 14:45:00,
2013-03-27 15:50:00,29.4,26.0,29.85,ENE,70,4.0,7.0,87,0.00,,---,0.00,155.00,VWS V14.01,2013-03-27 14:50:00,
2013-03-27 15:55:00,29.7,26.6,29.85,ENE,68,0.0,3.0,88,0.00,,---,0.00,158.00,VWS V14.01,2013-03-27 14:55:00,
2013-03-27 16:05:00,30.3,26.6,29.85,NE,53,0.0,7.0,86,0.00,,---,0.00,90.00,VWS V14.01,2013-03-27 15:05:00,
2013-03-27 16:15:00,29.8,25.9,29.85,NE,48,3.0,7.0,85,0.00,,---,0.00,113.00,VWS V14.01,2013-03-27 15:15:00,
2013-03-27 16:25:00,29.9,26.2,29.85,NE,41,4.0,7.0,86,0.00,,---,0.00,109.00,VWS V14.01,2013-03-27 15:25:00,
2013-03-27 16:30:00,30.0,26.3,29.86,ENE,69,2.0,6.0,86,0.00,,---,0.00,102.00,VWS V14.01,2013-03-27 15:30:00,
2013-03-27 16:35:00,29.9,26.2,29.86,ENE,63,1.0,12.0,86,0.00,,---,0.00,95.00,VWS V14.01,2013-03-27 15:35:00,
2013-03-27 16:40:00,29.8,26.1,29.86,NE,55,9.0,11.0,86,0.00,,---,0.00,76.00,VWS V14.01,2013-03-27 15:40:00,
2013-03-27 16:45:00,29.9,26.2,29.86,NE,52,9.0,11.0,86,0.00,,---,0.00,74.00,VWS V14.01,2013-03-27 15:45:00,
2013-03-27 16:50:00,29.9,26.2,29.86,NE,42,3.0,5.0,86,0.00,,---,0.00,60.00,VWS V14.01,2013-03-27 15:50:00,
2013-03-27 16:55:00,30.1,26.4,29.86,NE,48,4.0,10.0,86,0.00,,---,0.00,56.00,VWS V14.01,2013-03-27 15:55:00,
2013-03-27 17:00:00,30.0,26.3,29.85,NNE,32,7.0,7.0,86,0.00,,---,0.00,53.00,VWS V14.01,2013-03-27 16:00:00,
2013-03-27 17:05:00,30.1,26.4,29.85,NE,35,6.0,9.0,86,0.00,,---,0.00,47.00,VWS V14.01,2013-03-27 16:05:00,
2013-03-27 17:10:00,30.0,26.3,29.85,NNE,27,2.0,4.0,86,0.00,,---,0.00,33.00,VWS V14.01,2013-03-27 16:10:00,
2013-03-27 17:15:00,30.0,26.0,29.85,ENE,76,6.0,10.0,85,0.00,,---,0.00,26.00,VWS V14.01,2013-03-27 16:15:00,
2013-03-27 17:20:00,30.0,26.0,29.85,ENE,74,2.0,6.0,85,0.00,,---,0.00,30.00,VWS V14.01,2013-03-27 16:20:00,
2013-03-27 17:25:00,30.1,26.1,29.85,NNE,33,5.0,11.0,85,0.00,,---,0.00,26.00,VWS V14.01,2013-03-27 16:25:00,
2013-03-27 17:35:00,30.1,25.6,29.85,ENE,75,3.0,5.0,83,0.00,,---,0.00,28.00,VWS V14.01,2013-03-27 16:35:00,
2013-03-27 17:40:00,30.1,25.6,29.85,ENE,59,7.0,7.0,83,0.00,,---,0.00,26.00,VWS V14.01,2013-03-27 16:40:00,
2013-03-27 17:45:00,30.1,25.3,29.85,ENE,70,8.0,9.0,82,0.00,,---,0.00,23.00,VWS V14.01,2013-03-27 16:45:00,
2013-03-27 17:50:00,30.2,25.1,29.85,ENE,67,5.0,6.0,81,0.00,,---,0.00,19.00,VWS V14.01,2013-03-27 16:50:00,
2013-03-27 17:55:00,30.2,25.1,29.85,NE,56,2.0,4.0,81,0.00,,---,0.00,16.00,VWS V14.01,2013-03-27 16:55:00,
2013-03-27 18:00:00,30.2,25.1,29.85,NE,53,3.0,6.0,81,0.00,,---,0.00,12.00,VWS V14.01,2013-03-27 17:00:00,
2013-03-27 18:05:00,30.2,25.1,29.85,ENE,74,8.0,8.0,81,0.00,,---,0.00,9.00,VWS V14.01,2013-03-27 17:05:00,
2013-03-27 18:15:00,30.3,24.9,29.86,ENE,67,5.0,7.0,80,0.00,,---,0.00,0.00,VWS V14.01,2013-03-27 17:15:00,
2013-03-27 18:20:00,30.3,24.9,29.86,ENE,69,0.0,3.0,80,0.00,,---,0.00,0.00,VWS V14.01,2013-03-27 17:20:00,
2013-03-27 18:25:00,30.3,24.6,29.86,ENE,77,4.0,4.0,79,0.00,,---,0.00,0.00,VWS V14.01,2013-03-27 17:25:00,
2013-03-27 18:30:00,30.4,24.4,29.86,East,80,0.0,3.0,78,0.00,,---,0.00,0.00,VWS V14.01,2013-03-27 17:30:00,
2013-03-27 18:35:00,30.5,24.5,29.86,East,82,0.0,3.0,78,0.00,,---,0.00,0.00,VWS V14.01,2013-03-27 17:35:00,
2013-03-27 18:40:00,30.5,24.2,29.86,East,82,5.0,5.0,77,0.00,,---,0.00,0.00,VWS V14.01,2013-03-27 17:40:00,
2013-03-27 18:45:00,30.6,24.0,29.87,East,84,2.0,3.0,76,0.00,,---,0.00,0.00,VWS V14.01,2013-03-27 17:45:00,
2013-03-27 18:50:00,30.6,24.0,29.87,East,84,1.0,3.0,76,0.00,,---,0.00,0.00,VWS V14.01,2013-03-27 17:50:00,
2013-03-27 18:55:00,30.7,23.7,29.87,ESE,107,0.0,4.0,75,0.00,,---,0.00,0.00,VWS V14.01,2013-03-27 17:55:00,
2013-03-27 19:00:00,30.8,23.8,29.87,East,92,5.0,6.0,75,0.00,,---,0.00,0.00,VWS V14.01,2013-03-27 18:00:00,
2013-03-27 19:05:00,30.8,23.8,29.87,East,98,2.0,6.0,75,0.00,,---,0.00,0.00,VWS V14.01,2013-03-27 18:05:00,
2013-03-27 19:15:00,30.8,23.5,29.87,ESE,103,1.0,4.0,74,0.00,,---,0.00,0.00,VWS V14.01,2013-03-27 18:15:00,
2013-03-27 19:20:00,30.9,23.6,29.87,East,91,4.0,6.0,74,0.00,,---,0.00,0.00,VWS V14.01,2013-03-27 18:20:00,
2013-03-27 19:25:00,30.9,23.6,29.87,East,92,3.0,3.0,74,0.00,,---,0.00,0.00,VWS V14.01,2013-03-27 18:25:00,
2013-03-27 19:35:00,31.0,23.4,29.87,East,86,2.0,4.0,73,0.00,,---,0.00,0.00,VWS V14.01,2013-03-27 18:35:00,
2013-03-27 19:45:00,31.0,23.4,29.88,ESE,102,0.0,0.0,73,0.00,,---,0.00,0.00,VWS V14.01,2013-03-27 18:45:00,
2013-03-27 19:50:00,31.0,23.4,29.88,ESE,103,0.0,3.0,73,0.00,,---,0.00,0.00,VWS V14.01,2013-03-27 18:50:00,
2013-03-27 19:55:00,31.0,23.4,29.88,ESE,103,0.0,2.0,73,0.00,,---,0.00,0.00,VWS V14.01,2013-03-27 18:55:00,
2013-03-27 20:00:00,31.0,23.4,29.88,ESE,105,1.0,3.0,73,0.00,,---,0.00,0.00,VWS V14.01,2013-03-27 19:00:00,
2013-03-27 20:05:00,31.0,23.4,29.88,ESE,105,0.0,4.0,73,0.00,,---,0.00,0.00,VWS V14.01,2013-03-27 19:05:00,
2013-03-27 20:15:00,31.0,23.4,29.87,ESE,105,0.0,0.0,73,0.00,,---,0.00,0.00,VWS V14.01,2013-03-27 19:15:00,
2013-03-27 20:20:00,31.0,23.4,29.87,ESE,105,1.0,3.0,73,0.00,,---,0.00,0.00,VWS V14.01,2013-03-27 19:20:00,
2013-03-27 20:30:00,31.1,23.5,29.88,East,98,1.0,4.0,73,0.00,,---,0.00,0.00,VWS V14.01,2013-03-27 19:30:00,
2013-03-27 20:35:00,31.1,23.5,29.88,East,99,1.0,3.0,73,0.00,,---,0.00,0.00,VWS V14.01,2013-03-27 19:35:00,
2013-03-27 20:40:00,31.1,23.5,29.88,ESE,102,1.0,4.0,73,0.00,,---,0.00,0.00,VWS V14.01,2013-03-27 19:40:00,
2013-03-27 20:45:00,31.1,23.5,29.88,ESE,102,0.0,3.0,73,0.00,,---,0.00,0.00,VWS V14.01,2013-03-27 19:45:00,
2013-03-27 20:55:00,31.1,23.5,29.88,ESE,102,0.0,0.0,73,0.00,,---,0.00,0.00,VWS V14.01,2013-03-27 19:55:00,
2013-03-27 21:00:00,31.2,23.6,29.88,East,101,4.0,4.0,73,0.00,,---,0.00,0.00,VWS V14.01,2013-03-27 20:00:00,
2013-03-27 21:10:00,31.1,23.5,29.88,ESE,105,3.0,4.0,73,0.00,,---,0.00,0.00,VWS V14.01,2013-03-27 20:10:00,
2013-03-27 21:15:00,31.2,23.6,29.87,ENE,72,4.0,5.0,73,0.00,,---,0.00,0.00,VWS V14.01,2013-03-27 20:15:00,
2013-03-27 21:25:00,31.1,23.5,29.87,East,93,4.0,5.0,73,0.00,,---,0.00,0.00,VWS V14.01,2013-03-27 20:25:00,
2013-03-27 21:30:00,31.1,23.5,29.87,ENE,69,0.0,5.0,73,0.00,,---,0.00,0.00,VWS V14.01,2013-03-27 20:30:00,
2013-03-27 21:40:00,31.1,23.8,29.87,ENE,76,2.0,4.0,74,0.00,,---,0.00,0.00,VWS V14.01,2013-03-27 20:40:00,
2013-03-27 21:45:00,31.0,23.7,29.87,ENE,76,2.0,4.0,74,0.00,,---,0.00,0.00,VWS V14.01,2013-03-27 20:45:00,
2013-03-27 21:50:00,31.0,24.0,29.87,ENE,75,1.0,2.0,75,0.00,,---,0.00,0.00,VWS V14.01,2013-03-27 20:50:00,
2013-03-27 21:55:00,31.0,24.0,29.87,East,83,2.0,2.0,75,0.00,,---,0.00,0.00,VWS V14.01,2013-03-27 20:55:00,
2013-03-27 22:00:00,30.9,23.9,29.87,East,84,0.0,0.0,75,0.00,,---,0.00,0.00,VWS V14.01,2013-03-27 21:00:00,
2013-03-27 22:10:00,30.9,23.9,29.87,East,84,3.0,3.0,75,0.00,,---,0.00,0.00,VWS V14.01,2013-03-27 21:10:00,
2013-03-27 22:15:00,30.9,23.9,29.87,East,84,1.0,3.0,75,0.00,,---,0.00,0.00,VWS V14.01,2013-03-27 21:15:00,
2013-03-27 22:25:00,30.9,24.2,29.87,ENE,78,1.0,2.0,76,0.00,,---,0.00,0.00,VWS V14.01,2013-03-27 21:25:00,
2013-03-27 22:30:00,30.9,24.2,29.87,ENE,74,1.0,4.0,76,0.00,,---,0.00,0.00,VWS V14.01,2013-03-27 21:30:00,
2013-03-27 22:35:00,30.9,24.2,29.87,ENE,78,0.0,5.0,76,0.00,,---,0.00,0.00,VWS V14.01,2013-03-27 21:35:00,
2013-03-27 22:40:00,30.8,24.1,29.87,East,90,3.0,4.0,76,0.00,,---,0.00,0.00,VWS V14.01,2013-03-27 21:40:00,
2013-03-27 22:45:00,30.8,24.1,29.87,East,82,2.0,3.0,76,0.00,,---,0.00,0.00,VWS V14.01,2013-03-27 21:45:00,
2013-03-27 22:55:00,30.7,24.0,29.87,East,89,0.0,5.0,76,0.00,,---,0.00,0.00,VWS V14.01,2013-03-27 21:55:00,
2013-03-27 23:00:00,30.7,24.0,29.87,East,96,4.0,4.0,76,0.00,,---,0.00,0.00,VWS V14.01,2013-03-27 22:00:00,
2013-03-27 23:10:00,30.6,24.0,29.87,East,91,3.0,4.0,76,0.00,,---,0.00,0.00,VWS V14.01,2013-03-27 22:10:00,
2013-03-27 23:15:00,30.6,24.0,29.87,East,87,2.0,4.0,76,0.00,,---,0.00,0.00,VWS V14.01,2013-03-27 22:15:00,
2013-03-27 23:20:00,30.6,24.3,29.87,East,90,0.0,3.0,77,0.00,,---,0.00,0.00,VWS V14.01,2013-03-27 22:20:00,
2013-03-27 23:25:00,30.6,24.3,29.87,East,90,0.0,2.0,77,0.00,,---,0.00,0.00,VWS V14.01,2013-03-27 22:25:00,
2013-03-27 23:30:00,30.5,24.2,29.87,East,88,3.0,4.0,77,0.00,,---,0.00,0.00,VWS V14.01,2013-03-27 22:30:00,
2013-03-27 23:40:00,30.5,24.2,29.87,East,86,1.0,3.0,77,0.00,,---,0.00,0.00,VWS V14.01,2013-03-27 22:40:00,
2013-03-27 23:45:00,30.5,24.2,29.87,East,84,1.0,4.0,77,0.00,,---,0.00,0.00,VWS V14.01,2013-03-27 22:45:00,
2013-03-27 23:55:00,30.4,24.1,29.87,East,83,3.0,4.0,77,0.00,,---,0.00,0.00,VWS V14.01,2013-03-27 22:55:00,